Kansas City, MO

4:46 PM CDT on July 24, 2016 (GMT -0500)
Kansas City International

Weather History for KMCI - May, 2013

Change the Weather History Date:

Monday, May 20, 2013

  Actual Average Record
Temperature  
Mean Temperature 71 °F 66 °F  
Max Temperature 80 °F 76 °F 90 °F (1970)
Min Temperature 61 °F 55 °F 40 °F (1981)
Degree Days  
Heating Degree Days 0 3  
Month to date heating degree days 141 85  
Since 1 July heating degree days 5170 5105  
Cooling Degree Days 6 3  
Month to date cooling degree days 48 40  
Year to date cooling degree days 61 68  
Growing Degree Days 20 (Base 50)    
Moisture  
Dew Point 60 °F    
Average Humidity 72    
Maximum Humidity 90    
Minimum Humidity 54    
Precipitation  
Precipitation 0.00 in 0.18 in 2.10 in (1899)
Month to date precipitation 2.91 3.38  
Year to date precipitation 11.38 11.98  
Snow  
Snow 0.00 in 0.00 in 0.00 in ()
Month to date snowfall 0.5 0.0  
Since 1 July snowfall 31.8 18.8  
Snow Depth 0.00 in    
Sea Level Pressure  
Sea Level Pressure 29.68 in    
Wind  
Wind Speed 12 mph (SSW)    
Max Wind Speed 20 mph    
Max Gust Speed 29 mph    
Visibility 10 miles    
Events      
T = Trace of Precipitation, MM = Missing Value Source: NWS Daily Summary

Daily Weather History Graph

Daily Weather History Graph

Search for Another Location

Airport or City:

Trip Planner

Search our weather history database for the weather conditions in past years. The results will help you decide how hot, cold, wet, or windy it might be!

Date:

Astronomy

May. 20, 2013 Rise Set
Actual Time 6:01 AM CDT 8:30 PM CDT
Civil Twilight 5:30 AM CDT 9:01 PM CDT
Nautical Twilight 4:52 AM CDT 9:39 PM CDT
Astronomical Twilight 4:10 AM CDT 10:21 PM CDT
Moon 3:40 PM CDT (5/20) 2:54 AM CDT (5/20)
Length of Visible Light 15h 30m
Length of Day
14h 29m
Waxing Gibbous, 75% of the Moon is Illuminated
May 20
Waxing Gibbous
May 24
Full
May 31
Last Quarter
Jun 8
New
Jun 16
First Quarter

Hourly Weather History & Observations

Time (CDT) Temp. Dew Point Humidity Pressure Visibility Wind Dir Wind Speed Gust Speed Precip Events Conditions
12:53 AM 63.0 °F 57.9 °F 84% 29.66 in 10.0 mi SSE 15.0 mph - N/A   Overcast
1:53 AM 62.1 °F 59.0 °F 90% 29.62 in 10.0 mi South 6.9 mph - N/A   Overcast
2:53 AM 62.6 °F 59.0 °F 88% 29.66 in 10.0 mi South 11.5 mph - N/A   Overcast
3:53 AM 62.6 °F 57.2 °F 82% 29.64 in 10.0 mi South 13.8 mph - N/A   Overcast
4:53 AM 62.1 °F 57.9 °F 86% 29.65 in 10.0 mi South 15.0 mph - N/A   Overcast
5:53 AM 62.6 °F 57.2 °F 82% 29.69 in 10.0 mi SSW 12.7 mph - N/A   Mostly Cloudy
6:53 AM 60.8 °F 57.2 °F 88% 29.72 in 10.0 mi South 10.4 mph - N/A   Scattered Clouds
7:33 AM 62.6 °F 59.0 °F 88% 29.73 in 10.0 mi SSW 12.7 mph - N/A   Mostly Cloudy
7:53 AM 64.0 °F 59.0 °F 84% 29.72 in 10.0 mi SSW 10.4 mph - N/A   Scattered Clouds
7:57 AM 64.4 °F 60.8 °F 88% 29.73 in 10.0 mi South 15.0 mph - N/A   Scattered Clouds
8:53 AM 66.2 °F 60.8 °F 83% 29.73 in 10.0 mi SSW 11.5 mph - N/A   Scattered Clouds
9:53 AM 64.9 °F 60.1 °F 84% 29.73 in 10.0 mi South 8.1 mph - N/A   Mostly Cloudy
10:53 AM 70.0 °F 63.0 °F 78% 29.73 in 10.0 mi SSW 12.7 mph - N/A   Mostly Cloudy
11:53 AM 72.0 °F 61.0 °F 68% 29.74 in 10.0 mi SSW 15.0 mph - N/A   Mostly Cloudy
12:53 PM 73.9 °F 61.0 °F 64% 29.73 in 10.0 mi SSW 18.4 mph - N/A   Mostly Cloudy
1:53 PM 75.0 °F 63.0 °F 66% 29.72 in 10.0 mi South 19.6 mph 28.8 mph N/A   Mostly Cloudy
2:53 PM 77.0 °F 64.9 °F 66% 29.69 in 10.0 mi South 15.0 mph - N/A   Scattered Clouds
3:53 PM 77.0 °F 64.9 °F 66% 29.66 in 10.0 mi SSE 12.7 mph 21.9 mph N/A   Scattered Clouds
4:53 PM 79.0 °F 64.9 °F 62% 29.65 in 10.0 mi South 10.4 mph - N/A   Scattered Clouds
5:53 PM 79.0 °F 60.1 °F 52% 29.63 in 10.0 mi SW 10.4 mph - N/A   Mostly Cloudy
6:53 PM 78.1 °F 62.1 °F 58% 29.60 in 10.0 mi South 9.2 mph - N/A   Scattered Clouds
7:53 PM 75.0 °F 62.1 °F 64% 29.62 in 10.0 mi SSW 9.2 mph - N/A   Scattered Clouds
9:53 PM 69.1 °F 57.0 °F 65% 29.64 in 10.0 mi WSW 9.2 mph - N/A   Clear
10:53 PM 63.0 °F 54.0 °F 72% 29.67 in 10.0 mi South 8.1 mph - N/A   Scattered Clouds
11:53 PM 66.0 °F 54.0 °F 65% 29.66 in 10.0 mi SW 10.4 mph - N/A   Partly Cloudy